Voltar ao catálogo

STARLINK-36524

AtivoComunicaçõesVLEO
NORAD 67452·PAYLOAD·🇺🇸 United States

Lançado Jan 14, 2026 de Cape Canaveral Space Force Station

Loading…

Próximas Passagens (próximas 24 horas)

TLE

AtualizadoSource: CelesTrak SupGP

Época: Sep 14, 2026, 22:33 UTC

1 67452C 26008H   26257.94006944  .00010256  00000+0  37142-3 0  2578
2 67452  43.0008 216.8764 0001380 261.2258 349.7923 15.27578116    14

Acompanhe STARLINK-36524 em tempo real com AllMySat

Download on the App Store